{"data":{"norad_id":67240,"intl_designator":"2025-311E","name":"HULIANWANG DIGUI-132","alt_names":[],"object_type":"PAYLOAD","status":"ACTIVE","operator":null,"country":"PRC","launch_date":"2025-12-25","launch_site_code":"WSC","launch_vehicle":null,"mission":null,"orbit_class":"UNKNOWN","rcs_meters":null,"size_class":null,"mass_kg":null,"dimensions":null,"purposes":[],"wikipedia_slug":null,"has_3d_model":false,"image_url":null,"decayed_at":null,"tle_current":{"epoch":"2026-09-20T22:22:13.802880Z","epoch_age_seconds":65819,"freshness":"FRESH","line1":"1 67240U 25311E   26263.93210420 -.00000105  00000+0  41449-4 0  9993","line2":"2 67240  50.0048 132.5007 0000167 338.6303  21.4562 13.29327676 36078","mean_motion":13.29327676,"eccentricity":1.67e-5,"inclination_deg":50.0048,"raan_deg":132.5007,"arg_perigee_deg":338.6303,"mean_anomaly_deg":21.4562,"bstar":4.1449e-5,"rev_number":3607,"period_min":108.32543593262,"perigee_km":1149.1745366449,"apogee_km":1149.4259530489,"semimajor_km":7527.4372448469,"source":"CELESTRAK","updated_at":"2026-09-21T09:00:16.508855Z"}}}